Location: Beaurecueil
(43.5122°N, 5.5450°E)
Time: 14:21:27
(UTC+00:00)

Cosmos 1048 Rocket - Pass Details

Date: 18 September 2020
Orbit: 742 x 792 km, 74.0° (Epoch: 29 October)

Event Time Altitude Azimuth Distance (km) Brightness Sun altitude
Rises 19:24:54 0° 342° (NNW) 3,258 7.8 -19.0°
Reaches altitude 10° 19:27:18 10° 346° (NNW) 2,334 7.0 -19.4°
Maximum altitude 19:32:35 63° 67° (ENE) 876 4.0 -20.3°
Enters shadow 19:34:13 42° 128° (SE) 1,108 4.3 -20.6°
